ANA2756 NTAA-NCRG

Flight info

Callsign ANA2756
Flight time 1h 35m
Altitude 36000
Route ONIDO DCT MAITO G594 DALUN OSPID1A
Aircraft B77L/H-SDE1E2E3FGHIJ2J3J4J5M1RWXY/LB1D1

Departure

Time 2026-05-07 18:49
Airport Fa'a'ā International Airport (NTAA)

Arrival

Time 2026-05-07 20:24
Airport Rarotonga International Airport (NCRG)
Time Latitude Longitude Altitude Speed Heading
2026-05-07 18:36 -17.55815 -149.60955 26 ft 0 kts 144°
2026-05-07 18:38 -17.55809 -149.60959 26 ft 2 kts 144°
2026-05-07 18:38 -17.55796 -149.60969 32 ft 2 kts 149°
2026-05-07 18:38 -17.55781 -149.60977 31 ft 2 kts 155°
2026-05-07 18:39 -17.55766 -149.60984 31 ft 2 kts 166°
2026-05-07 18:39 -17.55749 -149.60986 31 ft 2 kts 188°
2026-05-07 18:39 -17.55734 -149.60980 31 ft 2 kts 221°
2026-05-07 18:39 -17.55725 -149.60971 31 ft 1 kts 232°
2026-05-07 18:40 -17.55725 -149.60970 31 ft 0 kts 233°
2026-05-07 18:42 -17.55727 -149.60973 31 ft 2 kts 233°
2026-05-07 18:43 -17.55742 -149.60994 29 ft 4 kts 233°
2026-05-07 18:43 -17.55753 -149.61010 31 ft 4 kts 233°
2026-05-07 18:43 -17.55771 -149.61048 28 ft 5 kts 268°
2026-05-07 18:43 -17.55754 -149.61077 29 ft 5 kts 315°
2026-05-07 18:44 -17.55723 -149.61101 31 ft 6 kts 323°
2026-05-07 18:44 -17.55688 -149.61133 29 ft 7 kts 304°
2026-05-07 18:44 -17.55690 -149.61185 28 ft 8 kts 245°
2026-05-07 18:44 -17.55720 -149.61232 28 ft 8 kts 234°
2026-05-07 18:45 -17.55743 -149.61265 29 ft 9 kts 234°
2026-05-07 18:45 -17.55795 -149.61339 27 ft 10 kts 234°
2026-05-07 18:45 -17.55835 -149.61397 26 ft 10 kts 234°
2026-05-07 18:45 -17.55875 -149.61455 27 ft 10 kts 234°
2026-05-07 18:46 -17.55888 -149.61474 30 ft 10 kts 234°
2026-05-07 18:46 -17.55955 -149.61572 31 ft 10 kts 234°
2026-05-07 18:46 -17.55995 -149.61631 28 ft 10 kts 234°
2026-05-07 18:46 -17.56036 -149.61690 29 ft 10 kts 234°
2026-05-07 18:47 -17.56076 -149.61749 27 ft 10 kts 234°
2026-05-07 18:47 -17.56116 -149.61809 27 ft 10 kts 234°
2026-05-07 18:47 -17.56157 -149.61868 27 ft 10 kts 234°
2026-05-07 18:47 -17.56199 -149.61931 26 ft 11 kts 234°
2026-05-07 18:48 -17.56218 -149.61996 27 ft 7 kts 262°
2026-05-07 18:48 -17.56250 -149.62003 27 ft 5 kts 126°
2026-05-07 18:48 -17.56227 -149.61962 26 ft 15 kts 51°
2026-05-07 18:48 -17.56056 -149.61719 26 ft 87 kts 54°
2026-05-07 18:49 -17.55492 -149.60893 45 ft 186 kts 55°
2026-05-07 18:49 -17.54717 -149.59752 1035 ft 188 kts 57°
2026-05-07 18:49 -17.53973 -149.58636 2305 ft 190 kts 57°
2026-05-07 18:49 -17.53444 -149.57846 2677 ft 205 kts 57°
2026-05-07 18:50 -17.52267 -149.56085 3318 ft 236 kts 57°
2026-05-07 18:50 -17.51310 -149.54661 4179 ft 243 kts 57°
2026-05-07 18:50 -17.50645 -149.53672 4792 ft 247 kts 57°
2026-05-07 18:50 -17.49076 -149.51910 5795 ft 264 kts 29°
2026-05-07 18:51 -17.47243 -149.51558 6632 ft 279 kts 355°
2026-05-07 18:51 -17.45377 -149.52221 7427 ft 292 kts 331°
2026-05-07 18:51 -17.43850 -149.53612 8334 ft 298 kts 309°
2026-05-07 18:51 -17.42880 -149.55543 9205 ft 306 kts 285°
2026-05-07 18:52 -17.42774 -149.57603 10042 ft 306 kts 257°
2026-05-07 18:52 -17.43445 -149.59722 10850 ft 311 kts 245°
2026-05-07 18:52 -17.44384 -149.61856 11192 ft 335 kts 242°
2026-05-07 18:52 -17.45462 -149.64131 11403 ft 363 kts 242°
2026-05-07 18:53 -17.46628 -149.66574 11757 ft 383 kts 241°
2026-05-07 18:53 -17.47829 -149.69091 12556 ft 386 kts 239°
2026-05-07 18:53 -17.49231 -149.71513 13333 ft 391 kts 235°
2026-05-07 18:53 -17.50727 -149.73898 14263 ft 392 kts 236°
2026-05-07 18:54 -17.52171 -149.76336 15028 ft 396 kts 238°
2026-05-07 18:54 -17.53526 -149.78835 15709 ft 402 kts 240°
2026-05-07 18:54 -17.54825 -149.81435 16486 ft 404 kts 242°
2026-05-07 18:54 -17.56076 -149.84093 17174 ft 409 kts 243°
2026-05-07 18:55 -17.57301 -149.86796 17894 ft 412 kts 244°
2026-05-07 18:55 -17.58511 -149.89525 18559 ft 416 kts 244°
2026-05-07 18:55 -17.59727 -149.92298 19104 ft 421 kts 245°
2026-05-07 18:55 -17.60950 -149.95099 19650 ft 425 kts 245°
2026-05-07 18:56 -17.62184 -149.97925 20312 ft 426 kts 245°
2026-05-07 18:56 -17.63422 -150.00760 20824 ft 431 kts 245°
2026-05-07 18:56 -17.64677 -150.03630 21357 ft 435 kts 245°
2026-05-07 18:56 -17.65941 -150.06520 21980 ft 436 kts 245°
2026-05-07 18:57 -17.67217 -150.09436 22452 ft 442 kts 245°
2026-05-07 18:57 -17.68065 -150.11376 22808 ft 444 kts 245°
2026-05-07 18:57 -17.69797 -150.15336 23497 ft 449 kts 245°
2026-05-07 18:57 -17.71101 -150.18321 23969 ft 451 kts 245°
2026-05-07 18:58 -17.72406 -150.21309 24448 ft 453 kts 245°
2026-05-07 18:58 -17.73724 -150.24327 24849 ft 456 kts 245°
2026-05-07 18:58 -17.75049 -150.27363 25271 ft 459 kts 246°
2026-05-07 18:58 -17.76381 -150.30419 25734 ft 460 kts 246°
2026-05-07 18:59 -17.77714 -150.33474 26148 ft 464 kts 246°
2026-05-07 18:59 -17.78604 -150.35518 26353 ft 467 kts 246°
2026-05-07 18:59 -17.79961 -150.38632 26795 ft 468 kts 246°
2026-05-07 18:59 -17.81753 -150.42750 27355 ft 472 kts 246°
2026-05-07 19:00 -17.83123 -150.45900 27671 ft 476 kts 246°
2026-05-07 19:00 -17.84500 -150.49066 28134 ft 477 kts 246°
2026-05-07 19:00 -17.85876 -150.52232 28522 ft 479 kts 247°
2026-05-07 19:00 -17.87266 -150.55431 28871 ft 482 kts 247°
2026-05-07 19:01 -17.88662 -150.58647 29194 ft 486 kts 247°
2026-05-07 19:01 -17.89609 -150.60831 29423 ft 487 kts 247°
2026-05-07 19:01 -17.90996 -150.64026 29847 ft 488 kts 247°
2026-05-07 19:01 -17.92418 -150.67307 30324 ft 486 kts 247°
2026-05-07 19:02 -17.93780 -150.70495 30735 ft 485 kts 248°
2026-05-07 19:02 -17.95116 -150.73746 31139 ft 485 kts 248°
2026-05-07 19:02 -17.96452 -150.76993 31581 ft 484 kts 248°
2026-05-07 19:02 -17.97801 -150.80217 32058 ft 482 kts 248°
2026-05-07 19:03 -17.99165 -150.83417 32633 ft 477 kts 247°
2026-05-07 19:03 -18.00529 -150.86575 33211 ft 474 kts 247°
2026-05-07 19:03 -18.01899 -150.89724 33622 ft 474 kts 247°
2026-05-07 19:03 -18.03272 -150.92875 34067 ft 473 kts 246°
2026-05-07 19:04 -18.04635 -150.96003 34540 ft 470 kts 246°
2026-05-07 19:04 -18.05992 -150.99119 34940 ft 468 kts 246°
2026-05-07 19:04 -18.07343 -151.02229 35304 ft 468 kts 246°
2026-05-07 19:04 -18.08694 -151.05339 35651 ft 467 kts 246°
2026-05-07 19:05 -18.10042 -151.08449 35917 ft 468 kts 246°
2026-05-07 19:05 -18.12767 -151.14739 36050 ft 478 kts 246°
2026-05-07 19:06 -18.15529 -151.21120 36064 ft 476 kts 246°
2026-05-07 19:06 -18.19649 -151.30650 36076 ft 478 kts 247°
2026-05-07 19:07 -18.22384 -151.36984 36071 ft 473 kts 246°
2026-05-07 19:07 -18.25108 -151.43301 36077 ft 476 kts 247°
2026-05-07 19:08 -18.27849 -151.49665 36072 ft 477 kts 247°
2026-05-07 19:08 -18.30577 -151.56023 36083 ft 478 kts 248°
2026-05-07 19:09 -18.33071 -151.62430 36069 ft 474 kts 250°
2026-05-07 19:09 -18.35464 -151.68902 36083 ft 477 kts 250°
2026-05-07 19:10 -18.37886 -151.75408 36073 ft 475 kts 250°
2026-05-07 19:10 -18.40316 -151.81862 36076 ft 475 kts 249°
2026-05-07 19:11 -18.42769 -151.88352 36081 ft 477 kts 249°
2026-05-07 19:11 -18.45210 -151.94812 36073 ft 475 kts 250°
2026-05-07 19:12 -18.47655 -152.01297 36081 ft 477 kts 249°
2026-05-07 19:12 -18.50096 -152.07781 36079 ft 476 kts 249°
2026-05-07 19:13 -18.52532 -152.14257 36074 ft 474 kts 250°
2026-05-07 19:13 -18.54956 -152.20713 36079 ft 474 kts 250°
2026-05-07 19:14 -18.57388 -152.27198 36078 ft 477 kts 250°
2026-05-07 19:14 -18.59818 -152.33679 36079 ft 475 kts 250°
2026-05-07 19:15 -18.62244 -152.40164 36090 ft 477 kts 250°
2026-05-07 19:15 -18.64664 -152.46638 36087 ft 473 kts 250°
2026-05-07 19:16 -18.67060 -152.53055 36092 ft 475 kts 250°
2026-05-07 19:16 -18.69493 -152.59581 36088 ft 474 kts 250°
2026-05-07 19:17 -18.71889 -152.66013 36087 ft 474 kts 250°
2026-05-07 19:17 -18.74301 -152.72498 36079 ft 474 kts 250°
2026-05-07 19:18 -18.76706 -152.78971 36083 ft 474 kts 250°
2026-05-07 19:18 -18.79115 -152.85465 36083 ft 475 kts 250°
2026-05-07 19:19 -18.81516 -152.91942 36079 ft 473 kts 250°
2026-05-07 19:19 -18.83905 -152.98394 36078 ft 470 kts 250°
2026-05-07 19:20 -18.86274 -153.04801 36081 ft 466 kts 250°
2026-05-07 19:20 -18.88609 -153.11123 36080 ft 463 kts 250°
2026-05-07 19:21 -18.90936 -153.17435 36077 ft 460 kts 250°
2026-05-07 19:21 -18.93260 -153.23742 36091 ft 463 kts 250°
2026-05-07 19:22 -18.95607 -153.30123 36095 ft 469 kts 250°
2026-05-07 19:22 -18.97976 -153.36569 36092 ft 472 kts 250°
2026-05-07 19:23 -19.00355 -153.43051 36086 ft 474 kts 250°
2026-05-07 19:23 -19.02751 -153.49582 36083 ft 476 kts 250°
2026-05-07 19:24 -19.05134 -153.56093 36089 ft 476 kts 250°
2026-05-07 19:24 -19.07524 -153.62629 36080 ft 476 kts 250°
2026-05-07 19:25 -19.09913 -153.69167 36084 ft 477 kts 250°
2026-05-07 19:25 -19.12297 -153.75702 36094 ft 478 kts 250°
2026-05-07 19:26 -19.14666 -153.82208 36081 ft 477 kts 250°
2026-05-07 19:26 -19.17048 -153.88753 36089 ft 477 kts 250°
2026-05-07 19:27 -19.19435 -153.95321 36085 ft 478 kts 250°
2026-05-07 19:27 -19.21815 -154.01878 36088 ft 476 kts 250°
2026-05-07 19:28 -19.24193 -154.08439 36089 ft 477 kts 250°
2026-05-07 19:28 -19.26570 -154.15005 36088 ft 478 kts 250°
2026-05-07 19:29 -19.28948 -154.21582 36093 ft 479 kts 250°
2026-05-07 19:29 -19.31321 -154.28151 36085 ft 477 kts 250°
2026-05-07 19:30 -19.33681 -154.34696 36090 ft 475 kts 250°
2026-05-07 19:30 -19.36040 -154.41247 36091 ft 478 kts 250°
2026-05-07 19:31 -19.38414 -154.47846 36087 ft 478 kts 250°
2026-05-07 19:31 -19.40768 -154.54398 36087 ft 475 kts 250°
2026-05-07 19:32 -19.43116 -154.60943 36089 ft 475 kts 251°
2026-05-07 19:32 -19.45449 -154.67455 36096 ft 478 kts 250°
2026-05-07 19:33 -19.47812 -154.74059 36088 ft 478 kts 250°
2026-05-07 19:33 -19.50165 -154.80636 36098 ft 478 kts 250°
2026-05-07 19:34 -19.52526 -154.87249 36088 ft 478 kts 251°
2026-05-07 19:34 -19.54876 -154.93848 36092 ft 477 kts 251°
2026-05-07 19:35 -19.57222 -155.00439 36095 ft 478 kts 251°
2026-05-07 19:35 -19.59573 -155.07050 36094 ft 480 kts 251°
2026-05-07 19:36 -19.61907 -155.13622 36091 ft 479 kts 251°
2026-05-07 19:36 -19.64254 -155.20242 36090 ft 479 kts 251°
2026-05-07 19:37 -19.66593 -155.26849 36095 ft 478 kts 251°
2026-05-07 19:37 -19.68934 -155.33468 36098 ft 480 kts 251°
2026-05-07 19:38 -19.71269 -155.40079 36088 ft 478 kts 251°
2026-05-07 19:38 -19.73605 -155.46698 36091 ft 478 kts 251°
2026-05-07 19:39 -19.75936 -155.53315 36097 ft 479 kts 251°
2026-05-07 19:39 -19.78271 -155.59956 36091 ft 479 kts 251°
2026-05-07 19:40 -19.80583 -155.66537 36097 ft 479 kts 251°
2026-05-07 19:40 -19.82911 -155.73170 36094 ft 479 kts 251°
2026-05-07 19:41 -19.85239 -155.79815 36096 ft 479 kts 251°
2026-05-07 19:41 -19.87558 -155.86447 36097 ft 480 kts 251°
2026-05-07 19:42 -19.89878 -155.93088 36093 ft 479 kts 251°
2026-05-07 19:42 -19.92201 -155.99745 36092 ft 479 kts 251°
2026-05-07 19:43 -19.94510 -156.06367 36096 ft 478 kts 251°
2026-05-07 19:43 -19.96814 -156.12987 36097 ft 478 kts 251°
2026-05-07 19:44 -19.99126 -156.19643 36099 ft 480 kts 251°
2026-05-07 19:44 -20.01435 -156.26294 36090 ft 478 kts 251°
2026-05-07 19:45 -20.03728 -156.32908 36090 ft 475 kts 251°
2026-05-07 19:45 -20.05983 -156.39424 36088 ft 470 kts 251°
2026-05-07 19:46 -20.08232 -156.45932 36091 ft 468 kts 251°
2026-05-07 19:46 -20.10473 -156.52426 36098 ft 468 kts 251°
2026-05-07 19:47 -20.12720 -156.58945 36099 ft 469 kts 251°
2026-05-07 19:47 -20.14969 -156.65479 36105 ft 472 kts 251°
2026-05-07 19:48 -20.17237 -156.72077 36108 ft 476 kts 252°
2026-05-07 19:48 -20.19516 -156.78718 36106 ft 479 kts 252°
2026-05-07 19:49 -20.21805 -156.85393 36097 ft 480 kts 252°
2026-05-07 19:49 -20.24071 -156.92014 36100 ft 479 kts 252°
2026-05-07 19:50 -20.26345 -156.98662 36093 ft 477 kts 252°
2026-05-07 19:50 -20.28564 -157.05298 36094 ft 475 kts 253°
2026-05-07 19:51 -20.30714 -157.11938 36087 ft 473 kts 253°
2026-05-07 19:51 -20.32855 -157.18564 36086 ft 473 kts 253°
2026-05-07 19:52 -20.34638 -157.24067 36085 ft 472 kts 253°
2026-05-07 19:52 -20.36784 -157.30683 36089 ft 473 kts 253°
2026-05-07 19:53 -20.38935 -157.37319 36088 ft 473 kts 253°
2026-05-07 19:53 -20.41082 -157.43953 36089 ft 474 kts 253°
2026-05-07 19:54 -20.43231 -157.50606 36092 ft 475 kts 253°
2026-05-07 19:54 -20.45380 -157.57268 36095 ft 475 kts 253°
2026-05-07 19:55 -20.47530 -157.63940 36092 ft 476 kts 253°
2026-05-07 19:55 -20.49677 -157.70615 36089 ft 476 kts 253°
2026-05-07 19:56 -20.51821 -157.77290 36088 ft 476 kts 253°
2026-05-07 19:56 -20.53965 -157.83974 36089 ft 476 kts 253°
2026-05-07 19:57 -20.56097 -157.90631 35970 ft 472 kts 253°
2026-05-07 19:57 -20.57160 -157.93953 35657 ft 474 kts 253°
2026-05-07 19:57 -20.58227 -157.97294 35271 ft 477 kts 253°
2026-05-07 19:58 -20.59299 -158.00650 34940 ft 478 kts 253°
2026-05-07 19:58 -20.60358 -158.03967 34672 ft 478 kts 253°
2026-05-07 19:58 -20.61430 -158.07327 34443 ft 477 kts 253°
2026-05-07 19:58 -20.62494 -158.10665 34265 ft 475 kts 253°
2026-05-07 19:59 -20.63555 -158.13994 34071 ft 473 kts 253°
2026-05-07 19:59 -20.64613 -158.17317 33852 ft 471 kts 253°
2026-05-07 19:59 -20.65664 -158.20621 33649 ft 469 kts 253°
2026-05-07 19:59 -20.66712 -158.23922 33419 ft 468 kts 253°
2026-05-07 20:00 -20.67755 -158.27207 33197 ft 467 kts 253°
2026-05-07 20:00 -20.68795 -158.30483 32721 ft 465 kts 253°
2026-05-07 20:00 -20.69828 -158.33741 32206 ft 461 kts 253°
2026-05-07 20:00 -20.70851 -158.36967 31693 ft 457 kts 253°
2026-05-07 20:01 -20.71865 -158.40170 31173 ft 453 kts 254°
2026-05-07 20:01 -20.72870 -158.43344 30653 ft 450 kts 254°
2026-05-07 20:01 -20.73868 -158.46502 30124 ft 448 kts 254°
2026-05-07 20:01 -20.74860 -158.49644 29535 ft 445 kts 254°
2026-05-07 20:02 -20.75843 -158.52759 28972 ft 441 kts 254°
2026-05-07 20:02 -20.76818 -158.55851 28442 ft 437 kts 254°
2026-05-07 20:02 -20.77785 -158.58919 27928 ft 433 kts 254°
2026-05-07 20:02 -20.78743 -158.61957 27412 ft 430 kts 254°
2026-05-07 20:03 -20.79630 -158.64990 26911 ft 425 kts 257°
2026-05-07 20:03 -20.80363 -158.68035 26415 ft 421 kts 259°
2026-05-07 20:03 -20.81028 -158.71073 25923 ft 418 kts 260°
2026-05-07 20:03 -20.81675 -158.74100 25432 ft 416 kts 260°
2026-05-07 20:04 -20.82323 -158.77102 24927 ft 414 kts 259°
2026-05-07 20:04 -20.82980 -158.80099 24433 ft 413 kts 259°
2026-05-07 20:04 -20.83642 -158.83074 23940 ft 411 kts 259°
2026-05-07 20:04 -20.84309 -158.86045 23408 ft 410 kts 259°
2026-05-07 20:05 -20.84976 -158.89000 22873 ft 407 kts 259°
2026-05-07 20:05 -20.85638 -158.91929 22380 ft 404 kts 259°
2026-05-07 20:05 -20.86294 -158.94833 21900 ft 400 kts 259°
2026-05-07 20:05 -20.86946 -158.97719 21426 ft 397 kts 259°
2026-05-07 20:06 -20.87591 -159.00581 20956 ft 395 kts 259°
2026-05-07 20:06 -20.88231 -159.03423 20489 ft 392 kts 259°
2026-05-07 20:06 -20.88859 -159.06213 20030 ft 390 kts 259°
2026-05-07 20:06 -20.89490 -159.09022 19562 ft 388 kts 258°
2026-05-07 20:07 -20.90119 -159.11823 19084 ft 387 kts 258°
2026-05-07 20:07 -20.90745 -159.14614 18614 ft 386 kts 258°
2026-05-07 20:07 -20.91369 -159.17398 18107 ft 384 kts 258°
2026-05-07 20:07 -20.91990 -159.20172 17603 ft 382 kts 258°
2026-05-07 20:08 -20.92608 -159.22931 17122 ft 380 kts 258°
2026-05-07 20:08 -20.93221 -159.25670 16652 ft 378 kts 258°
2026-05-07 20:08 -20.93830 -159.28392 16203 ft 376 kts 258°
2026-05-07 20:08 -20.94436 -159.31104 15748 ft 374 kts 258°
2026-05-07 20:09 -20.95037 -159.33800 15292 ft 372 kts 258°
2026-05-07 20:09 -20.95636 -159.36487 14842 ft 370 kts 258°
2026-05-07 20:09 -20.96231 -159.39161 14375 ft 369 kts 258°
2026-05-07 20:10 -20.97335 -159.44478 13497 ft 359 kts 266°
2026-05-07 20:10 -20.97164 -159.47126 13073 ft 357 kts 283°
2026-05-07 20:10 -20.96457 -159.49634 12692 ft 348 kts 287°
2026-05-07 20:10 -20.96036 -159.52125 12466 ft 342 kts 274°
2026-05-07 20:11 -20.96125 -159.54667 12248 ft 337 kts 262°
2026-05-07 20:11 -20.96600 -159.57087 11935 ft 335 kts 258°
2026-05-07 20:11 -20.97169 -159.59501 11620 ft 334 kts 257°
2026-05-07 20:11 -20.97743 -159.61887 11390 ft 330 kts 257°
2026-05-07 20:12 -20.98305 -159.64259 11016 ft 327 kts 257°
2026-05-07 20:12 -20.98849 -159.66608 10713 ft 320 kts 258°
2026-05-07 20:12 -20.99362 -159.68863 10565 ft 308 kts 257°
2026-05-07 20:12 -20.99855 -159.71056 10435 ft 297 kts 258°
2026-05-07 20:13 -21.00325 -159.73168 10300 ft 286 kts 258°
2026-05-07 20:13 -21.00798 -159.75192 10073 ft 276 kts 252°
2026-05-07 20:13 -21.01862 -159.76886 9599 ft 273 kts 229°
2026-05-07 20:13 -21.02943 -159.78499 9233 ft 264 kts 245°
2026-05-07 20:14 -21.03714 -159.80263 8893 ft 260 kts 248°
2026-05-07 20:14 -21.04415 -159.82012 8512 ft 259 kts 249°
2026-05-07 20:14 -21.05083 -159.83797 8150 ft 257 kts 251°
2026-05-07 20:14 -21.05694 -159.85596 7751 ft 257 kts 253°
2026-05-07 20:15 -21.06228 -159.87424 7327 ft 258 kts 256°
2026-05-07 20:15 -21.06701 -159.89290 6864 ft 261 kts 257°
2026-05-07 20:15 -21.07173 -159.91187 6431 ft 264 kts 257°
2026-05-07 20:15 -21.07647 -159.93078 6160 ft 263 kts 257°
2026-05-07 20:16 -21.08125 -159.94971 5794 ft 262 kts 257°
2026-05-07 20:16 -21.08600 -159.96841 5568 ft 254 kts 257°
2026-05-07 20:16 -21.09054 -159.98619 5565 ft 243 kts 257°
2026-05-07 20:16 -21.09492 -160.00335 5543 ft 237 kts 257°
2026-05-07 20:17 -21.09935 -160.02078 5443 ft 252 kts 257°
2026-05-07 20:17 -21.10422 -160.03932 5084 ft 261 kts 251°
2026-05-07 20:17 -21.11418 -160.05534 4761 ft 261 kts 220°
2026-05-07 20:17 -21.13025 -160.06345 4493 ft 255 kts 189°
2026-05-07 20:18 -21.14778 -160.06450 4229 ft 252 kts 178°
2026-05-07 20:18 -21.16527 -160.06443 3970 ft 250 kts 178°
2026-05-07 20:18 -21.18212 -160.06193 3708 ft 239 kts 152°
2026-05-07 20:18 -21.19447 -160.05145 3613 ft 221 kts 121°
2026-05-07 20:19 -21.20107 -160.03721 3492 ft 206 kts 103°
2026-05-07 20:19 -21.20287 -160.02287 3387 ft 187 kts 87°
2026-05-07 20:19 -21.20290 -160.00901 3273 ft 187 kts 86°
2026-05-07 20:19 -21.20283 -159.99506 3067 ft 187 kts 85°
2026-05-07 20:20 -21.20252 -159.98154 2846 ft 178 kts 84°
2026-05-07 20:20 -21.20223 -159.96894 2621 ft 162 kts 84°
2026-05-07 20:20 -21.20196 -159.95736 2338 ft 149 kts 85°
2026-05-07 20:20 -21.20184 -159.94676 2046 ft 135 kts 85°
2026-05-07 20:21 -21.20191 -159.93665 1893 ft 139 kts 86°
2026-05-07 20:21 -21.20204 -159.92604 1646 ft 146 kts 86°
2026-05-07 20:21 -21.20220 -159.91501 1318 ft 148 kts 88°
2026-05-07 20:21 -21.20262 -159.90409 1103 ft 145 kts 88°
2026-05-07 20:22 -21.20258 -159.89353 993 ft 139 kts 85°
2026-05-07 20:22 -21.20241 -159.88327 881 ft 137 kts 86°
2026-05-07 20:22 -21.20245 -159.87301 859 ft 135 kts 87°
2026-05-07 20:22 -21.20260 -159.86302 827 ft 136 kts 87°
2026-05-07 20:23 -21.20242 -159.85272 636 ft 140 kts 89°
2026-05-07 20:23 -21.20237 -159.84242 517 ft 139 kts 90°
2026-05-07 20:23 -21.20256 -159.83205 334 ft 140 kts 90°
2026-05-07 20:23 -21.20254 -159.82194 196 ft 133 kts 90°
2026-05-07 20:24 -21.20256 -159.81232 42 ft 123 kts 90°
2026-05-07 20:24 -21.20256 -159.80446 17 ft 77 kts 90°
2026-05-07 20:24 -21.20258 -159.80046 15 ft 41 kts 90°
2026-05-07 20:24 -21.20257 -159.79889 16 ft 11 kts 89°
2026-05-07 20:25 -21.20214 -159.79829 15 ft 12 kts 13°
2026-05-07 20:25 -21.20135 -159.79844 14 ft 11 kts 326°
2026-05-07 20:25 -21.20093 -159.79883 14 ft 6 kts 340°
2026-05-07 20:25 -21.20080 -159.79876 14 ft 1 kts 46°
2026-05-07 20:26 -21.20079 -159.79867 14 ft 0 kts 81°
2026-05-07 20:26 -21.20079 -159.79865 14 ft 0 kts 80°